Location: Newark
(39.2833°N, 16.3333°E)
Time: 00:06:12
(UTC+00:00)

Envisat - Pass Details

Date: 28 October 2019
Orbit: 764 x 766 km, 98.1° (Epoch: 12 November)

Event Time Altitude Azimuth Distance (km) Brightness Sun altitude
Rises 04:38:06 0° 31° (NNE) 3,237 6.5 -8.3°
Reaches altitude 10° 04:41:12 10° 51° (NE) 2,305 6.1 -7.7°
Maximum altitude 04:44:31 17° 92° (E) 1,842 6.4 -7.1°
Drops below altitude 10° 04:47:49 10° 133° (SE) 2,294 6.5 -6.4°
Sets 04:50:53 0° 153° (SSE) 3,215 6.9 -5.9°
